| time (UTC) | temp F | wind direction | speed knots | gust knots | rain 1hr in | rain 24hr in | rain mn in | humidity % | barometer mb |
| 20260505201003 | 39 | 0 | 0.0 | 0.0 | 0.00 | 0.00 | 0.00 | 67 | 1011.3 |
| 20260505200503 | 39 | 0 | 0.0 | 0.0 | 0.00 | 0.00 | 0.00 | 67 | 1011.3 |
| 20260505200003 | 40 | 0 | 0.0 | 0.0 | 0.00 | 0.00 | 0.00 | 66 | 1011.3 |
| 20260505195503 | 40 | 0 | 0.0 | 0.0 | 0.00 | 0.00 | 0.00 | 65 | 1011.3 |
| 20260505195003 | 40 | 0 | 0.0 | 0.0 | 0.00 | 0.00 | 0.00 | 65 | 1011.3 |
| 20260505194503 | 41 | 0 | 0.0 | 0.0 | 0.00 | 0.00 | 0.00 | 64 | 1011.3 |
| 20260505194003 | 41 | 0 | 0.0 | 0.0 | 0.00 | 0.00 | 0.00 | 63 | 1011.3 |
| 20260505193503 | 41 | 0 | 0.0 | 0.0 | 0.00 | 0.00 | 0.00 | 62 | 1011.2 |
| 20260505193003 | 42 | 0 | 0.0 | 0.0 | 0.00 | 0.00 | 0.00 | 62 | 1011.1 |
| 20260505192503 | 42 | 0 | 0.0 | 0.0 | 0.00 | 0.00 | 0.00 | 61 | 1011.1 |
| 20260505192002 | 43 | 0 | 0.0 | 0.0 | 0.00 | 0.00 | 0.00 | 60 | 1011.0 |
| 20260505191503 | 43 | 0 | 0.0 | 0.0 | 0.00 | 0.00 | 0.00 | 59 | 1011.1 |
| 20260505191003 | 44 | 0 | 0.0 | 0.0 | 0.00 | 0.00 | 0.00 | 59 | 1011.0 |
| 20260505190503 | 44 | 0 | 0.0 | 0.0 | 0.00 | 0.00 | 0.00 | 57 | 1011.0 |
| 20260505190024 | 44 | 0 | 0.0 | 0.0 | 0.00 | 0.00 | 0.00 | 56 | 1011.0 |
| 20260505185503 | 45 | 0 | 0.0 | 0.0 | 0.00 | 0.00 | 0.00 | 54 | 1010.9 |
| 20260505185003 | 46 | 0 | 0.0 | 0.0 | 0.00 | 0.00 | 0.00 | 53 | 1010.9 |
| 20260505184503 | 46 | 0 | 0.0 | 0.0 | 0.00 | 0.00 | 0.00 | 52 | 1010.9 |
| 20260505184003 | 47 | 0 | 0.0 | 0.0 | 0.00 | 0.00 | 0.00 | 49 | 1010.9 |
| 20260505183503 | 48 | 0 | 0.0 | 0.0 | 0.00 | 0.00 | 0.00 | 48 | 1010.9 |
| 20260505183003 | 48 | 0 | 0.0 | 0.0 | 0.00 | 0.00 | 0.00 | 45 | 1010.8 |
| 20260505182503 | 49 | 0 | 0.0 | 0.0 | 0.00 | 0.00 | 0.00 | 44 | 1010.8 |
| 20260505182023 | 50 | 0 | 0.0 | 0.0 | 0.00 | 0.00 | 0.00 | 43 | 1010.8 |
| 20260505181503 | 51 | 0 | 0.0 | 0.0 | 0.00 | 0.00 | 0.00 | 41 | 1010.8 |
| 20260505181003 | 52 | 0 | 0.0 | 0.0 | 0.00 | 0.00 | 0.00 | 39 | 1010.8 |
| 20260505180503 | 54 | 0 | 0.0 | 0.0 | 0.00 | 0.00 | 0.00 | 38 | 1010.9 |
| 20260505180003 | 55 | 0 | 0.0 | 0.0 | 0.00 | 0.00 | 0.00 | 39 | 1010.8 |
| 20260505175503 | 55 | 324 | 0.0 | 0.9 | 0.00 | 0.00 | 0.00 | 36 | 1010.8 |
| 20260505175003 | 55 | 324 | 0.0 | 0.9 | 0.00 | 0.00 | 0.00 | 36 | 1010.7 |
| 20260505174503 | 56 | 0 | 0.0 | 0.0 | 0.00 | 0.00 | 0.00 | 36 | 1010.7 |
| 20260505174003 | 57 | 312 | 0.0 | 0.9 | 0.00 | 0.00 | 0.00 | 35 | 1010.7 |
| 20260505173503 | 57 | 312 | 0.0 | 0.9 | 0.00 | 0.00 | 0.00 | 35 | 1010.6 |
| 20260505173003 | 56 | 261 | 0.0 | 0.9 | 0.00 | 0.00 | 0.00 | 36 | 1010.8 |
| 20260505172503 | 56 | 155 | 0.0 | 2.6 | 0.00 | 0.00 | 0.00 | 35 | 1010.8 |
| 20260505172002 | 57 | 175 | 0.0 | 2.6 | 0.00 | 0.00 | 0.00 | 36 | 1010.7 |
| 20260505171503 | 56 | 293 | 0.0 | 3.5 | 0.00 | 0.00 | 0.00 | 36 | 1010.6 |
| 20260505171003 | 55 | 294 | 0.0 | 3.5 | 0.00 | 0.00 | 0.00 | 38 | 1010.6 |
| 20260505170503 | 56 | 304 | 0.0 | 2.6 | 0.00 | 0.00 | 0.00 | 36 | 1010.6 |
| 20260505170024 | 56 | 306 | 0.0 | 2.6 | 0.00 | 0.00 | 0.00 | 33 | 1010.6 |
| 20260505165503 | 56 | 325 | 0.0 | 1.7 | 0.00 | 0.00 | 0.00 | 35 | 1010.6 |
| 20260505165024 | 55 | 311 | 0.0 | 2.6 | 0.00 | 0.00 | 0.00 | 35 | 1010.5 |
| 20260505164503 | 55 | 303 | 0.0 | 3.5 | 0.00 | 0.00 | 0.00 | 36 | 1010.6 |
| 20260505164003 | 55 | 305 | 0.0 | 3.5 | 0.00 | 0.00 | 0.00 | 36 | 1010.8 |
| 20260505163503 | 55 | 298 | 0.0 | 2.6 | 0.00 | 0.00 | 0.00 | 36 | 1010.8 |
| 20260505163024 | 55 | 308 | 0.0 | 4.3 | 0.00 | 0.00 | 0.00 | 37 | 1010.8 |
| 20260505162503 | 54 | 305 | 0.9 | 4.3 | 0.00 | 0.00 | 0.00 | 36 | 1010.8 |
| 20260505162003 | 55 | 311 | 0.0 | 4.3 | 0.00 | 0.00 | 0.00 | 37 | 1010.8 |
| 20260505161523 | 55 | 309 | 0.9 | 4.3 | 0.00 | 0.00 | 0.00 | 36 | 1010.8 |
| 20260505161002 | 55 | 269 | 0.9 | 4.3 | 0.00 | 0.00 | 0.00 | 37 | 1010.8 |
| 20260505160503 | 55 | 262 | 0.9 | 4.3 | 0.00 | 0.00 | 0.00 | 37 | 1010.8 |
| 20260505153003 | 55 | 298 | 0.0 | 3.5 | 0.00 | 0.00 | 0.00 | 39 | 1010.7 |
| 20260505152504 | 55 | 305 | 0.9 | 5.2 | 0.00 | 0.00 | 0.00 | 38 | 1010.9 |
| 20260505152003 | 56 | 303 | 0.9 | 5.2 | 0.00 | 0.00 | 0.00 | 36 | 1010.8 |
| 20260505151503 | 57 | 291 | 0.0 | 3.5 | 0.00 | 0.00 | 0.00 | 34 | 1010.8 |
| 20260505151024 | 58 | 311 | 0.0 | 3.5 | 0.00 | 0.00 | 0.00 | 31 | 1010.8 |
| 20260505150503 | 57 | 316 | 0.9 | 4.3 | 0.00 | 0.00 | 0.00 | 33 | 1010.8 |
| 20260505140524 | 59 | 301 | 0.0 | 1.7 | 0.00 | 0.00 | 0.00 | 30 | 1010.7 |
| 20260505125003 | 56 | 305 | 0.9 | 7.0 | 0.00 | 0.00 | 0.00 | 35 | 1010.6 |
| 20260505124503 | 58 | 307 | 0.9 | 7.0 | 0.00 | 0.00 | 0.00 | 30 | 1010.8 |
| 20260505124003 | 58 | 290 | 0.0 | 3.5 | 0.00 | 0.00 | 0.00 | 32 | 1010.6 |
| 20260505123524 | 57 | 291 | 0.9 | 3.5 | 0.00 | 0.00 | 0.00 | 39 | 1010.5 |
| 20260505123003 | 57 | 306 | 0.0 | 1.7 | 0.00 | 0.00 | 0.00 | 36 | 1010.5 |
| 20260505122503 | 56 | 308 | 0.9 | 4.3 | 0.00 | 0.00 | 0.00 | 36 | 1010.6 |
| 20260505122003 | 56 | 293 | 0.9 | 4.3 | 0.00 | 0.00 | 0.00 | 39 | 1010.6 |
| 20260505121503 | 55 | 310 | 0.9 | 7.8 | 0.00 | 0.00 | 0.00 | 40 | 1010.5 |
| 20260505121002 | 57 | 308 | 0.9 | 7.8 | 0.00 | 0.00 | 0.00 | 40 | 1010.6 |
| 20260505120503 | 57 | 271 | 0.9 | 3.5 | 0.00 | 0.00 | 0.00 | 37 | 1010.6 |
| 20260505120003 | 57 | 289 | 0.9 | 3.5 | 0.00 | 0.00 | 0.00 | 39 | 1010.5 |
| 20260505115503 | 56 | 240 | 0.9 | 3.5 | 0.00 | 0.00 | 0.00 | 38 | 1010.5 |
| 20260505115024 | 56 | 242 | 0.9 | 4.3 | 0.00 | 0.00 | 0.00 | 37 | 1010.5 |
| 20260505114503 | 57 | 292 | 0.9 | 4.3 | 0.00 | 0.00 | 0.00 | 38 | 1010.4 |
| 20260505114003 | 57 | 269 | 0.9 | 4.3 | 0.00 | 0.00 | 0.00 | 39 | 1010.5 |
| 20260505113503 | 56 | 184 | 0.9 | 4.3 | 0.00 | 0.00 | 0.00 | 39 | 1010.4 |
| 20260505113003 | 56 | 179 | 0.9 | 4.3 | 0.00 | 0.00 | 0.00 | 39 | 1010.3 |
| 20260505112503 | 55 | 279 | 0.0 | 2.6 | 0.00 | 0.00 | 0.00 | 39 | 1010.4 |
| 20260505112024 | 55 | 302 | 0.9 | 6.1 | 0.00 | 0.00 | 0.00 | 41 | 1010.4 |
| 20260505111502 | 55 | 308 | 0.9 | 6.1 | 0.00 | 0.00 | 0.00 | 38 | 1010.4 |
| 20260505111003 | 56 | 283 | 0.9 | 3.5 | 0.00 | 0.00 | 0.00 | 38 | 1010.4 |
| 20260505110503 | 55 | 279 | 0.9 | 3.5 | 0.00 | 0.00 | 0.00 | 39 | 1010.4 |
| 20260505102003 | 54 | 299 | 0.9 | 5.2 | 0.00 | 0.00 | 0.00 | 36 | 1010.4 |
| 20260505101503 | 53 | 310 | 0.9 | 4.3 | 0.00 | 0.00 | 0.00 | 37 | 1010.5 |
| 20260505101003 | 54 | 313 | 0.9 | 4.3 | 0.00 | 0.00 | 0.00 | 40 | 1010.5 |
| 20260505100503 | 53 | 239 | 0.9 | 4.3 | 0.00 | 0.00 | 0.00 | 38 | 1010.4 |
| 20260505100002 | 53 | 265 | 0.9 | 3.5 | 0.00 | 0.00 | 0.00 | 37 | 1010.4 |
| 20260505095503 | 53 | 301 | 0.0 | 3.5 | 0.00 | 0.00 | 0.00 | 39 | 1010.4 |
| 20260505095003 | 53 | 252 | 0.0 | 3.5 | 0.00 | 0.00 | 0.00 | 40 | 1010.4 |
| 20260505094503 | 53 | 281 | 0.9 | 4.3 | 0.00 | 0.00 | 0.00 | 39 | 1010.3 |
| 20260505094024 | 52 | 294 | 0.9 | 4.3 | 0.00 | 0.00 | 0.00 | 42 | 1010.3 |
| 20260505093503 | 52 | 292 | 0.9 | 3.5 | 0.00 | 0.00 | 0.00 | 44 | 1010.2 |
| 20260505093003 | 52 | 290 | 0.9 | 3.5 | 0.00 | 0.00 | 0.00 | 41 | 1010.2 |
| 20260505092503 | 52 | 257 | 0.9 | 2.6 | 0.00 | 0.00 | 0.00 | 40 | 1010.2 |
| 20260505092003 | 52 | 276 | 0.9 | 4.3 | 0.00 | 0.00 | 0.00 | 42 | 1010.2 |
| 20260505091502 | 52 | 285 | 0.9 | 4.3 | 0.00 | 0.00 | 0.00 | 39 | 1010.1 |
| 20260505091003 | 52 | 264 | 0.9 | 3.5 | 0.00 | 0.00 | 0.00 | 39 | 1010.1 |
| 20260505090503 | 52 | 272 | 0.9 | 3.5 | 0.00 | 0.00 | 0.00 | 39 | 1010.1 |
| 20260505090003 | 52 | 297 | 0.9 | 3.5 | 0.00 | 0.00 | 0.00 | 40 | 1009.9 |
| 20260505085523 | 52 | 293 | 0.0 | 2.6 | 0.00 | 0.00 | 0.00 | 41 | 1010.0 |
| 20260505085003 | 52 | 295 | 0.9 | 2.6 | 0.00 | 0.00 | 0.00 | 46 | 1009.9 |
| 20260505084503 | 52 | 294 | 0.0 | 2.6 | 0.00 | 0.00 | 0.00 | 42 | 1009.8 |
| 20260505084003 | 53 | 187 | 0.0 | 2.6 | 0.00 | 0.00 | 0.00 | 44 | 1009.8 |
| 20260505083503 | 52 | 312 | 0.0 | 3.5 | 0.00 | 0.00 | 0.00 | 44 | 1009.8 |
| 20260505083003 | 52 | 314 | 0.0 | 3.5 | 0.00 | 0.00 | 0.00 | 44 | 1009.9 |
| 20260505082503 | 51 | 325 | 0.0 | 1.7 | 0.00 | 0.00 | 0.00 | 41 | 1009.9 |
| 20260505082003 | 51 | 319 | 0.0 | 1.7 | 0.00 | 0.00 | 0.00 | 43 | 1009.9 |
| 20260505081502 | 51 | 310 | 0.0 | 1.7 | 0.00 | 0.00 | 0.00 | 44 | 1009.8 |
| 20260505081003 | 50 | 307 | 0.9 | 3.5 | 0.00 | 0.00 | 0.00 | 45 | 1009.9 |
| 20260505080502 | 50 | 304 | 0.9 | 3.5 | 0.00 | 0.00 | 0.00 | 43 | 1009.9 |
| 20260505080024 | 49 | 305 | 0.9 | 7.8 | 0.00 | 0.00 | 0.00 | 46 | 1009.8 |
| 20260505075503 | 50 | 308 | 0.9 | 7.8 | 0.00 | 0.00 | 0.00 | 44 | 1009.8 |
| 20260505075003 | 50 | 24 | 0.0 | 2.6 | 0.00 | 0.00 | 0.00 | 49 | 1009.7 |
| 20260505074503 | 50 | 313 | 0.9 | 5.2 | 0.00 | 0.00 | 0.00 | 49 | 1009.7 |
| 20260505074003 | 50 | 312 | 0.9 | 5.2 | 0.00 | 0.00 | 0.00 | 48 | 1009.8 |
| 20260505073503 | 50 | 315 | 0.0 | 2.6 | 0.00 | 0.00 | 0.00 | 50 | 1009.7 |
| 20260505073003 | 50 | 315 | 0.0 | 2.6 | 0.00 | 0.00 | 0.00 | 50 | 1009.7 |
| 20260505072503 | 49 | 295 | 0.0 | 1.7 | 0.00 | 0.01 | 0.00 | 53 | 1009.7 |
| 20260505072003 | 49 | 308 | 0.0 | 3.5 | 0.00 | 0.01 | 0.00 | 52 | 1009.6 |
| 20260505071503 | 48 | 307 | 0.0 | 3.5 | 0.00 | 0.01 | 0.00 | 54 | 1009.5 |
| 20260505071002 | 48 | 309 | 0.0 | 2.6 | 0.00 | 0.01 | 0.00 | 52 | 1009.5 |
| 20260505070502 | 48 | 313 | 0.0 | 2.6 | 0.00 | 0.01 | 0.00 | 54 | 1009.6 |
| 20260505070003 | 48 | 283 | 0.0 | 0.9 | 0.00 | 0.01 | 0.00 | 54 | 1009.6 |
| 20260505065502 | 47 | 283 | 0.0 | 1.7 | 0.00 | 0.01 | 0.00 | 54 | 1009.6 |
| 20260505065003 | 47 | 285 | 0.0 | 1.7 | 0.00 | 0.01 | 0.00 | 54 | 1009.5 |
| 20260505064503 | 47 | 298 | 0.0 | 0.9 | 0.00 | 0.01 | 0.00 | 55 | 1009.5 |
| 20260505064003 | 46 | 297 | 0.0 | 0.9 | 0.00 | 0.01 | 0.00 | 56 | 1009.5 |
| 20260505063503 | 45 | 297 | 0.0 | 0.9 | 0.00 | 0.01 | 0.00 | 56 | 1009.4 |
| 20260505063003 | 45 | 299 | 0.0 | 1.7 | 0.00 | 0.01 | 0.00 | 58 | 1009.5 |
| 20260505062503 | 45 | 300 | 0.0 | 1.7 | 0.00 | 0.01 | 0.00 | 58 | 1009.4 |
| 20260505062003 | 44 | 156 | 0.0 | 0.9 | 0.00 | 0.01 | 0.00 | 59 | 1009.4 |
| 20260505061503 | 44 | 282 | 0.0 | 0.9 | 0.00 | 0.01 | 0.00 | 59 | 1009.4 |
| 20260505061002 | 44 | 298 | 0.0 | 0.9 | 0.00 | 0.01 | 0.00 | 60 | 1009.4 |
| 20260505060524 | 44 | 315 | 0.0 | 0.9 | 0.00 | 0.01 | 0.00 | 61 | 1009.4 |
| 20260505060003 | 44 | 289 | 0.0 | 0.9 | 0.00 | 0.01 | 0.00 | 62 | 1009.4 |
| 20260505055503 | 44 | 289 | 0.0 | 0.9 | 0.00 | 0.01 | 0.00 | 62 | 1009.4 |
| 20260505055003 | 44 | 0 | 0.0 | 0.0 | 0.00 | 0.01 | 0.00 | 62 | 1009.3 |
| 20260505054524 | 44 | 291 | 0.0 | 1.7 | 0.00 | 0.01 | 0.00 | 63 | 1009.4 |
| 20260505054003 | 43 | 291 | 0.0 | 1.7 | 0.00 | 0.01 | 0.00 | 63 | 1009.3 |
| 20260505053524 | 43 | 305 | 0.0 | 0.9 | 0.00 | 0.01 | 0.00 | 63 | 1009.3 |
| 20260505053003 | 43 | 306 | 0.0 | 0.9 | 0.00 | 0.01 | 0.00 | 62 | 1009.2 |
| 20260505052503 | 43 | 303 | 0.0 | 0.9 | 0.00 | 0.01 | 0.00 | 63 | 1009.1 |
| 20260505052024 | 43 | 0 | 0.0 | 0.0 | 0.00 | 0.01 | 0.00 | 63 | 1009.2 |
| 20260505051503 | 42 | 0 | 0.0 | 0.0 | 0.00 | 0.01 | 0.00 | 64 | 1009.2 |
| 20260505051002 | 42 | 152 | 0.0 | 0.9 | 0.00 | 0.01 | 0.00 | 65 | 1009.1 |
| 20260505050503 | 42 | 152 | 0.0 | 0.9 | 0.00 | 0.01 | 0.00 | 67 | 1009.0 |
| 20260505041503 | 40 | 0 | 0.0 | 0.0 | 0.00 | 0.01 | 0.00 | 52 | 1008.6 |
| 20260505041003 | 40 | 0 | 0.0 | 0.0 | 0.00 | 0.01 | 0.00 | 51 | 1008.5 |
| 20260505040502 | 41 | 0 | 0.0 | 0.0 | 0.00 | 0.01 | 0.00 | 50 | 1008.5 |
| 20260505040003 | 41 | 0 | 0.0 | 0.0 | 0.00 | 0.01 | 0.00 | 51 | 1008.5 |
| 20260505035503 | 41 | 0 | 0.0 | 0.0 | 0.00 | 0.01 | 0.00 | 51 | 1008.4 |
| 20260505035003 | 41 | 0 | 0.0 | 0.0 | 0.00 | 0.01 | 0.00 | 51 | 1008.4 |
| 20260505034503 | 41 | 0 | 0.0 | 0.0 | 0.00 | 0.01 | 0.00 | 50 | 1008.3 |
| 20260505034003 | 41 | 0 | 0.0 | 0.0 | 0.00 | 0.01 | 0.00 | 51 | 1008.3 |
| 20260505033503 | 42 | 0 | 0.0 | 0.0 | 0.00 | 0.01 | 0.00 | 51 | 1008.2 |
| 20260505033003 | 42 | 0 | 0.0 | 0.0 | 0.00 | 0.01 | 0.00 | 52 | 1008.3 |
| 20260505032503 | 42 | 0 | 0.0 | 0.0 | 0.00 | 0.01 | 0.00 | 51 | 1008.3 |
| 20260505032003 | 42 | 0 | 0.0 | 0.0 | 0.00 | 0.01 | 0.00 | 51 | 1008.2 |
| 20260505031503 | 43 | 0 | 0.0 | 0.0 | 0.00 | 0.01 | 0.00 | 53 | 1008.1 |
| 20260505031003 | 43 | 0 | 0.0 | 0.0 | 0.00 | 0.01 | 0.00 | 53 | 1008.2 |
| 20260505030502 | 43 | 0 | 0.0 | 0.0 | 0.00 | 0.01 | 0.00 | 54 | 1008.1 |
| 20260505030003 | 44 | 0 | 0.0 | 0.0 | 0.00 | 0.01 | 0.00 | 56 | 1008.0 |
| 20260505025503 | 44 | 0 | 0.0 | 0.0 | 0.00 | 0.01 | 0.00 | 58 | 1008.0 |
| 20260505025003 | 44 | 0 | 0.0 | 0.0 | 0.00 | 0.01 | 0.00 | 58 | 1008.0 |
| 20260505024503 | 45 | 0 | 0.0 | 0.0 | 0.00 | 0.01 | 0.00 | 58 | 1008.0 |
| 20260505024024 | 45 | 146 | 0.0 | 0.9 | 0.00 | 0.01 | 0.00 | 58 | 1008.0 |
| 20260505023503 | 45 | 146 | 0.0 | 0.9 | 0.00 | 0.01 | 0.00 | 58 | 1008.1 |
| 20260505023003 | 45 | 236 | 0.0 | 0.9 | 0.00 | 0.01 | 0.00 | 57 | 1008.1 |
| 20260505022503 | 46 | 289 | 0.0 | 1.7 | 0.00 | 0.01 | 0.00 | 56 | 1008.1 |
| 20260505022003 | 46 | 313 | 0.0 | 1.7 | 0.00 | 0.01 | 0.00 | 54 | 1008.0 |
| 20260505021503 | 46 | 332 | 0.0 | 1.7 | 0.00 | 0.02 | 0.00 | 52 | 1008.0 |
| 20260505021003 | 46 | 317 | 0.0 | 1.7 | 0.00 | 0.02 | 0.00 | 50 | 1008.0 |
| 20260505020524 | 46 | 311 | 0.0 | 2.6 | 0.00 | 0.02 | 0.00 | 49 | 1008.0 |
| 20260505020002 | 47 | 308 | 0.0 | 3.5 | 0.00 | 0.02 | 0.00 | 48 | 1008.0 |
| 20260505015503 | 47 | 308 | 0.0 | 3.5 | 0.00 | 0.02 | 0.00 | 48 | 1008.0 |
| 20260505015003 | 47 | 314 | 0.0 | 2.6 | 0.00 | 0.02 | 0.00 | 47 | 1008.0 |
| 20260505014524 | 47 | 315 | 0.0 | 2.6 | 0.00 | 0.02 | 0.00 | 47 | 1008.1 |
| 20260505014003 | 47 | 315 | 0.9 | 6.1 | 0.00 | 0.02 | 0.00 | 46 | 1008.0 |
| 20260505013524 | 47 | 317 | 0.0 | 6.1 | 0.00 | 0.02 | 0.00 | 45 | 1007.9 |
| 20260505013003 | 47 | 322 | 0.0 | 1.7 | 0.00 | 0.02 | 0.00 | 45 | 1008.0 |
| 20260505012503 | 47 | 315 | 0.0 | 1.7 | 0.00 | 0.02 | 0.00 | 45 | 1008.0 |
| 20260505012003 | 47 | 310 | 0.0 | 1.7 | 0.00 | 0.02 | 0.00 | 45 | 1008.0 |
| 20260505011524 | 47 | 299 | 0.0 | 3.5 | 0.00 | 0.03 | 0.00 | 44 | 1008.1 |
| 20260505011024 | 48 | 301 | 0.9 | 7.0 | 0.00 | 0.03 | 0.00 | 44 | 1008.0 |
| 20260505010502 | 48 | 310 | 0.0 | 7.0 | 0.00 | 0.03 | 0.00 | 42 | 1008.0 |
| 20260505010002 | 47 | 314 | 0.0 | 3.5 | 0.00 | 0.03 | 0.00 | 42 | 1007.9 |
| 20260505005503 | 47 | 273 | 0.0 | 2.6 | 0.00 | 0.04 | 0.00 | 41 | 1008.0 |
| 20260505005003 | 48 | 300 | 0.0 | 2.6 | 0.00 | 0.04 | 0.00 | 41 | 1008.0 |
| 20260505004503 | 48 | 300 | 0.0 | 6.1 | 0.00 | 0.05 | 0.00 | 40 | 1008.1 |
| 20260505004024 | 48 | 285 | 0.0 | 6.1 | 0.00 | 0.05 | 0.00 | 38 | 1008.1 |
| 20260505003503 | 48 | 308 | 0.0 | 2.6 | 0.00 | 0.06 | 0.00 | 34 | 1008.2 |
| 20260505003003 | 48 | 305 | 0.0 | 2.6 | 0.00 | 0.06 | 0.00 | 33 | 1008.3 |
| 20260505002503 | 48 | 296 | 0.0 | 3.5 | 0.00 | 0.06 | 0.00 | 33 | 1008.1 |
| 20260505002003 | 48 | 303 | 0.9 | 3.5 | 0.00 | 0.06 | 0.00 | 33 | 1008.2 |
| 20260505001503 | 48 | 305 | 0.9 | 5.2 | 0.00 | 0.06 | 0.00 | 34 | 1008.2 |
| 20260505001003 | 48 | 305 | 0.9 | 7.0 | 0.00 | 0.07 | 0.00 | 34 | 1008.2 |
| 20260505000503 | 47 | 299 | 0.9 | 7.0 | 0.00 | 0.07 | 0.00 | 34 | 1008.3 |
| 20260505000024 | 47 | 303 | 0.9 | 6.1 | 0.00 | 0.07 | 0.00 | 35 | 1008.2 |
| 20260504235503 | 47 | 310 | 0.0 | 6.1 | 0.00 | 0.07 | 0.00 | 34 | 1008.2 |
| 20260504235023 | 47 | 308 | 0.0 | 7.0 | 0.00 | 0.07 | 0.00 | 35 | 1008.1 |
| 20260504234524 | 47 | 310 | 0.0 | 7.0 | 0.00 | 0.07 | 0.00 | 36 | 1008.1 |
| 20260504234003 | 47 | 221 | 0.0 | 2.6 | 0.00 | 0.08 | 0.00 | 37 | 1008.1 |
| 20260504233503 | 47 | 304 | 0.9 | 7.0 | 0.00 | 0.08 | 0.00 | 39 | 1008.1 |
| 20260504233003 | 47 | 306 | 0.9 | 7.0 | 0.00 | 0.08 | 0.00 | 39 | 1007.9 |
| 20260504232503 | 47 | 258 | 0.0 | 3.5 | 0.00 | 0.08 | 0.00 | 38 | 1007.9 |
| 20260504232003 | 47 | 291 | 0.0 | 1.7 | 0.00 | 0.08 | 0.00 | 36 | 1008.0 |
| 20260504231503 | 47 | 305 | 0.0 | 1.7 | 0.00 | 0.09 | 0.00 | 35 | 1008.1 |
| 20260504231003 | 47 | 302 | 0.0 | 5.2 | 0.00 | 0.09 | 0.00 | 35 | 1008.1 |
| 20260504230502 | 47 | 301 | 0.9 | 6.1 | 0.00 | 0.09 | 0.00 | 35 | 1008.1 |
| 20260504230003 | 47 | 300 | 0.9 | 6.1 | 0.00 | 0.09 | 0.00 | 34 | 1008.1 |
| 20260504225524 | 47 | 301 | 0.9 | 4.3 | 0.00 | 0.09 | 0.00 | 34 | 1008.1 |
| 20260504225002 | 47 | 303 | 0.9 | 4.3 | 0.00 | 0.09 | 0.00 | 33 | 1008.1 |
| 20260504224503 | 47 | 300 | 0.0 | 3.5 | 0.00 | 0.09 | 0.00 | 33 | 1008.1 |
| 20260504224003 | 47 | 298 | 0.0 | 6.1 | 0.00 | 0.09 | 0.00 | 33 | 1008.1 |
| 20260504223503 | 48 | 302 | 0.0 | 6.1 | 0.00 | 0.09 | 0.00 | 33 | 1008.1 |
| 20260504223003 | 48 | 272 | 0.0 | 4.3 | 0.00 | 0.09 | 0.00 | 33 | 1008.1 |
| 20260504222503 | 48 | 277 | 0.0 | 4.3 | 0.00 | 0.09 | 0.00 | 32 | 1008.1 |
| 20260504222003 | 48 | 298 | 0.0 | 4.3 | 0.00 | 0.09 | 0.00 | 33 | 1008.2 |
| 20260504221503 | 48 | 249 | 0.0 | 4.3 | 0.00 | 0.09 | 0.00 | 33 | 1008.2 |
| 20260504221003 | 48 | 227 | 0.0 | 4.3 | 0.00 | 0.09 | 0.00 | 33 | 1008.2 |
| 20260504220502 | 48 | 299 | 0.9 | 6.1 | 0.00 | 0.09 | 0.00 | 33 | 1008.2 |
| 20260504220004 | 48 | 301 | 0.9 | 6.1 | 0.00 | 0.09 | 0.00 | 34 | 1008.2 |
| 20260504215503 | 48 | 300 | 0.9 | 4.3 | 0.00 | 0.09 | 0.09 | 34 | 1008.3 |
| 20260504215003 | 48 | 298 | 0.0 | 4.3 | 0.00 | 0.09 | 0.09 | 34 | 1008.3 |
| 20260504214524 | 48 | 287 | 0.0 | 4.3 | 0.00 | 0.09 | 0.09 | 34 | 1008.2 |
| 20260504214003 | 48 | 195 | 0.0 | 2.6 | 0.00 | 0.09 | 0.09 | 35 | 1008.3 |
| 20260504213503 | 48 | 176 | 0.0 | 2.6 | 0.00 | 0.09 | 0.09 | 36 | 1008.3 |
| 20260504213003 | 48 | 305 | 0.0 | 6.1 | 0.00 | 0.09 | 0.09 | 35 | 1008.3 |
| 20260504212503 | 48 | 305 | 0.9 | 6.1 | 0.00 | 0.09 | 0.09 | 36 | 1008.3 |
| 20260504212003 | 48 | 307 | 0.9 | 3.5 | 0.00 | 0.09 | 0.09 | 37 | 1008.3 |
| 20260504211503 | 48 | 296 | 0.9 | 4.3 | 0.00 | 0.09 | 0.09 | 38 | 1008.3 |
| 20260504211003 | 48 | 295 | 0.0 | 4.3 | 0.00 | 0.09 | 0.09 | 38 | 1008.3 |
| 20260504210523 | 48 | 256 | 0.0 | 3.5 | 0.00 | 0.09 | 0.09 | 39 | 1008.3 |
| 20260504210003 | 48 | 193 | 0.0 | 4.3 | 0.00 | 0.09 | 0.09 | 40 | 1008.2 |
| 20260504205524 | 48 | 207 | 0.0 | 4.3 | 0.00 | 0.09 | 0.09 | 40 | 1008.2 |
| 20260504205023 | 48 | 262 | 0.0 | 2.6 | 0.00 | 0.09 | 0.09 | 39 | 1008.3 |
| 20260504204503 | 48 | 251 | 0.0 | 3.5 | 0.00 | 0.09 | 0.09 | 39 | 1008.3 |
| 20260504204003 | 48 | 292 | 0.0 | 4.3 | 0.00 | 0.09 | 0.09 | 40 | 1008.3 |
| 20260504203524 | 48 | 295 | 0.9 | 4.3 | 0.00 | 0.09 | 0.09 | 41 | 1008.3 |
| 20260504203003 | 48 | 300 | 0.9 | 5.2 | 0.00 | 0.09 | 0.09 | 43 | 1008.3 |
| 20260504202503 | 48 | 296 | 0.9 | 5.2 | 0.00 | 0.09 | 0.09 | 44 | 1008.3 |
| 20260504202003 | 48 | 292 | 0.9 | 5.2 | 0.00 | 0.09 | 0.09 | 45 | 1008.3 |
| 20260504201503 | 49 | 306 | 0.9 | 5.2 | 0.00 | 0.09 | 0.09 | 47 | 1008.4 |